[[{"header":{"parameterUnit":"m.s-1","parameterCategory":2,"la1":30.2991,"la2":30.254,"lo1":-89.0895,"lo2":-89.0444,"dy":0.0017,"dx":0.0017,"nx":28,"ny":28,"refTime":"2024-08-18T21:00:00:Z","depth":"0","parameterNumber":2,"parameterNumberName":"U-component_of_CURRENTS"},"data":[0,0,0,0,0,0,0,0,0,0,0,0,0,0,0,0,0,0,0,0,0,0,0,0,0,0,0,0,0,0,0,0,0,0,0,0,0,0,0,0,0,0,0,0,0,0,0,0,0,0,0,0,0,0,0,0,0,0,-0.2331,-0.2331,0,-0.24,-0.24,-0.2401,-0.2382,-0.2381,-0.238,-0.2379,-0.2433,-0.2435,-0.2438,0,0,0,0,0,0,0,0,0,0,0,0,0,-0.2237,-0.2238,-0.2331,-0.2332,-0.2333,-0.24,-0.24,-0.2401,-0.2383,-0.2381,-0.2379,-0.2378,-0.2432,-0.2435,-0.2438,0,0,0,0,0,0,0,0,0,0,0,0,0,-0.2288,-0.2239,-0.233,-0.2332,-0.2333,-0.2399,-0.24,-0.2401,-0.2383,-0.2381,-0.2379,-0.2377,-0.2431,-0.2435,-0.2438,-0.2501,0,0,-0.2451,-0.2452,0,0,0,0,0,0,0,0,-0.2285,-0.2291,-0.2331,-0.2332,-0.2333,-0.2381,-0.2387,-0.2435,-0.2383,-0.2363,-0.2379,-0.2376,-0.2416,-0.2421,-0.2437,-0.2504,-0.2506,-0.2451,-0.2453,-0.2455,-0.2456,0,0,0,0,0,0,0,-0.2281,-0.2288,-0.2357,-0.2332,-0.2334,-0.2348,-0.2353,-0.2396,-0.2398,-0.2364,-0.2364,-0.2374,-0.2416,-0.2433,-0.2438,-0.2507,-0.2451,-0.2454,-0.2457,-0.2458,-0.2647,-0.2649,0,0,0,0,0,0,-0.2275,-0.2285,-0.2355,-0.2359,-0.2305,-0.2351,-0.2356,-0.2367,-0.2398,-0.2402,-0.2375,-0.2373,-0.2428,-0.2434,-0.244,-0.2487,-0.2455,-0.2459,-0.2461,-0.2644,-0.2647,-0.265,0,0,0,0,0,0,-0.2272,-0.228,-0.2352,-0.2324,-0.2334,-0.2355,-0.2367,-0.2369,-0.2378,-0.2407,-0.2409,-0.2381,-0.2426,-0.2435,-0.2477,-0.2489,-0.246,-0.2464,-0.2641,-0.2645,-0.2649,-0.2599,0,0,0,0,0,0,-0.2269,-0.2279,-0.2286,-0.2324,-0.2336,-0.239,-0.2369,-0.2372,-0.2389,-0.2385,-0.2413,-0.2416,-0.2425,-0.2471,-0.248,-0.2494,-0.2467,-0.2638,-0.2643,-0.2648,-0.2598,-0.2601,-0.2604,0,0,0,0,0,-0.2266,-0.2285,-0.2286,-0.2295,-0.2344,-0.2392,-0.2399,-0.2406,-0.2391,-0.2405,-0.2419,-0.2415,-0.251,-0.2476,-0.2487,-0.2502,-0.2635,-0.2641,-0.2647,-0.2596,-0.26,-0.2604,0,0,0,0,0,0,-0.2247,-0.2286,-0.2288,-0.2316,-0.235,-0.2388,-0.2404,-0.241,-0.2435,-0.2427,-0.2441,-0.2447,-0.2493,-0.2521,-0.2483,-0.258,-0.2576,-0.2585,-0.2534,-0.2538,-0.2542,-0.252,-0.247,0,0,0,0,0,-0.2248,-0.2266,-0.231,-0.2329,-0.2348,-0.2376,-0.2395,-0.2404,-0.2431,-0.2439,-0.2457,-0.2491,-0.2533,-0.2549,-0.2594,-0.2642,-0.2624,-0.2668,-0.2671,-0.2673,-0.267,-0.2637,-0.2634,-0.267,-0.267,-0.267,0,0,-0.2245,-0.2268,-0.2278,-0.2326,-0.2349,-0.2389,-0.2382,-0.2415,-0.244,-0.2445,-0.2478,-0.2503,-0.2553,-0.26,-0.2624,-0.2616,-0.2659,-0.2681,-0.2681,-0.2677,-0.2642,-0.2637,-0.2633,-0.2674,-0.2673,-0.2672,0,0,-0.2252,-0.227,-0.2292,-0.2326,-0.2369,-0.2394,-0.2404,-0.2446,-0.2454,-0.25,-0.2509,-0.2532,-0.2606,-0.2624,-0.2648,-0.2706,-0.268,-0.2739,-0.2726,-0.2693,-0.2687,-0.2682,-0.2653,-0.2646,-0.2735,-0.2734,-0.2734,0,-0.2245,-0.2277,-0.2306,-0.2342,-0.2369,-0.2396,-0.2431,-0.246,-0.2505,-0.2515,-0.2508,-0.2585,-0.2614,-0.2657,-0.2674,-0.2705,-0.2684,-0.2691,-0.2688,-0.2683,-0.2678,-0.265,-0.2642,-0.2733,-0.2733,-0.2733,-0.2733,0,-0.2273,-0.2302,-0.232,-0.237,-0.2407,-0.2441,-0.2488,-0.2513,-0.2523,-0.2544,-0.258,-0.2607,-0.2644,-0.2667,-0.2685,-0.269,-0.2685,-0.2688,-0.2654,-0.267,-0.2641,-0.2634,-0.273,-0.2731,-0.2732,-0.2732,0,0,-0.2243,-0.2323,-0.2326,-0.2354,-0.2422,-0.2454,-0.25,-0.2546,-0.2562,-0.2589,-0.2598,-0.2655,-0.2646,-0.2676,-0.2693,-0.2666,-0.2613,-0.2661,-0.266,-0.2591,-0.2533,-0.2489,-0.2477,-0.2598,-0.2597,-0.2596,-0.2522,0,-0.225,-0.2312,-0.2353,-0.2409,-0.2446,-0.249,-0.2531,-0.2574,-0.2598,-0.2616,-0.2624,-0.2651,-0.266,-0.2663,-0.2638,-0.263,-0.2594,-0.2633,-0.2566,-0.2564,-0.2487,-0.2467,-0.2369,-0.2291,-0.2515,-0.2513,-0.2513,0,-0.226,-0.23,-0.2355,-0.2426,-0.2446,-0.2483,-0.2536,-0.2575,-0.2613,-0.2628,-0.2635,-0.2647,-0.2638,-0.263,-0.258,-0.26,-0.2565,-0.2541,-0.2538,-0.2506,-0.2506,-0.2319,-0.2269,-0.2237,-0.2501,-0.2502,-0.2503,0,-0.2218,-0.2298,-0.2335,-0.2363,-0.2452,-0.2474,-0.2512,-0.2567,-0.2593,-0.262,-0.2625,-0.2625,-0.2611,-0.2568,-0.2539,-0.2547,-0.2463,-0.247,-0.2394,-0.2391,-0.2301,-0.2292,-0.2175,-0.241,-0.241,-0.241,-0.2411,0,-0.2207,-0.2235,-0.2317,-0.2339,-0.2377,-0.2447,-0.2479,-0.2521,-0.2564,-0.2574,-0.2613,-0.2604,-0.2589,-0.2553,-0.252,-0.2432,-0.2444,-0.2377,-0.236,-0.2287,-0.2277,-0.2243,-0.2278,-0.2408,-0.2408,-0.2409,-0.2409,0,-0.2152,-0.2209,-0.2255,-0.2338,-0.2359,-0.2381,-0.2452,-0.2466,-0.2526,-0.2531,-0.2534,-0.2569,-0.2521,-0.2506,-0.2437,-0.2397,-0.2283,-0.2297,-0.2217,-0.2191,-0.2083,-0.212,-0.2023,-0.1964,-0.2183,-0.2181,-0.2179,0,-0.2128,-0.2147,-0.2229,-0.224,-0.2272,-0.2316,-0.2334,-0.2423,-0.2435,-0.2495,-0.2477,-0.2472,-0.2441,-0.235,-0.228,-0.2201,-0.2206,-0.2068,-0.2067,-0.2045,-0.2074,-0.2107,-0.2067,-0.1932,-0.1929,-0.1926,-0.1924,0,-0.2067,-0.2096,-0.2125,-0.2156,-0.2179,-0.221,-0.2244,-0.226,-0.234,-0.2358,-0.2356,-0.2346,-0.2285,-0.2167,-0.2096,-0.2036,-0.2014,-0.2009,-0.1992,-0.1869,-0.1889,-0.1834,-0.2031,-0.19,-0.1902,-0.1904,-0.1905,-0.1906,-0.1998,-0.2002,-0.2035,-0.2049,-0.2074,-0.2077,-0.2052,-0.2101,-0.2116,-0.2113,-0.2185,-0.2143,-0.208,-0.1964,-0.1895,-0.1756,-0.1835,-0.1697,-0.1744,-0.1778,-0.1718,-0.1868,-0.1721,-0.1723,-0.1724,-0.1725,-0.1726,0,-0.1903,-0.1911,-0.192,-0.1931,-0.1898,-0.1954,-0.1958,-0.191,-0.1876,-0.1932,-0.1922,-0.1907,-0.1779,-0.173,-0.161,-0.152,-0.1477,-0.1482,-0.1494,-0.1464,-0.1575,-0.1559,-0.1362,-0.1362,-0.1362,-0.1363,-0.1363,-0.1363,-0.1851,-0.182,-0.1826,-0.1743,-0.1736,-0.1646,-0.1615,-0.1577,-0.1587,-0.1571,-0.1602,-0.1671,-0.1653,-0.1682,-0.1513,-0.1413,-0.1376,-0.1334,-0.1366,-0.1448,-0.1472,-0.1494,-0.1483,-0.1273,-0.1273,-0.1175,-0.1175,-0.1175]},{"header":{"parameterUnit":"m.s-1","parameterCategory":2,"la1":30.2991,"la2":30.254,"lo1":-89.0895,"lo2":-89.0444,"dy":0.0017,"dx":0.0017,"nx":28,"ny":28,"refTime":"2024-08-18T21:00:00:Z","depth":"0","parameterNumber":3,"parameterNumberName":"V-component_of_CURRENTS"},"data":[0,0,0,0,0,0,0,0,0,0,0,0,0,0,0,0,0,0,0,0,0,0,0,0,0,0,0,0,0,0,0,0,0,0,0,0,0,0,0,0,0,0,0,0,0,0,0,0,0,0,0,0,0,0,0,0,0,0,-0.0312,-0.0312,0,-0.0265,-0.0264,-0.0264,-0.0202,-0.0201,-0.02,-0.0199,-0.0078,-0.0076,-0.0073,0,0,0,0,0,0,0,0,0,0,0,0,0,-0.0312,-0.0312,-0.0312,-0.0312,-0.0311,-0.0265,-0.0264,-0.0264,-0.0202,-0.0201,-0.02,-0.0199,-0.0079,-0.0076,-0.0073,0,0,0,0,0,0,0,0,0,0,0,0,0,-0.0291,-0.0312,-0.0312,-0.0276,-0.0273,-0.0265,-0.0264,-0.0263,-0.0202,-0.0201,-0.02,-0.0199,-0.008,-0.0076,-0.0073,-0.0075,0,0,-0.0061,-0.006,0,0,0,0,0,0,0,0,-0.0293,-0.0291,-0.0282,-0.0279,-0.0275,-0.024,-0.022,-0.0197,-0.0203,-0.0227,-0.0199,-0.0198,-0.0127,-0.012,-0.0112,-0.0069,-0.0064,-0.0061,-0.0059,-0.0057,-0.0056,0,0,0,0,0,0,0,-0.0294,-0.0293,-0.0291,-0.0282,-0.0277,-0.025,-0.0246,-0.0215,-0.0182,-0.0225,-0.0221,-0.0219,-0.0124,-0.0116,-0.0108,-0.0062,-0.0061,-0.0058,-0.0056,-0.0054,0.0019,0.0018,0,0,0,0,0,0,-0.0308,-0.0295,-0.0293,-0.029,-0.0283,-0.0252,-0.0247,-0.0251,-0.0184,-0.0173,-0.022,-0.0216,-0.0123,-0.0113,-0.0104,-0.0087,-0.0057,-0.0054,-0.0052,0.0019,0.0019,0.0018,0,0,0,0,0,0,-0.0308,-0.0308,-0.0295,-0.0292,-0.0289,-0.0254,-0.0258,-0.025,-0.0235,-0.0181,-0.0169,-0.0212,-0.0121,-0.0109,-0.0082,-0.0082,-0.0052,-0.0049,0.0019,0.0019,0.0018,-0.0064,0,0,0,0,0,0,-0.0308,-0.0309,-0.0313,-0.0294,-0.029,-0.03,-0.0259,-0.0251,-0.0238,-0.0232,-0.0171,-0.0159,-0.0119,-0.0088,-0.0078,-0.0077,-0.0046,0.002,0.0019,0.0019,-0.0061,-0.0067,-0.0072,0,0,0,0,0,-0.0308,-0.0324,-0.0314,-0.0313,-0.0298,-0.0301,-0.0297,-0.0265,-0.0239,-0.0244,-0.0201,-0.016,-0.0083,-0.0086,-0.0074,-0.0072,0.002,0.0019,0.0019,-0.0058,-0.0066,-0.0072,0,0,0,0,0,0,-0.0327,-0.0319,-0.0307,-0.0319,-0.0315,-0.0291,-0.0291,-0.027,-0.0241,-0.0228,-0.0171,-0.0157,-0.0133,-0.0093,-0.0097,-0.0051,-0.0022,-0.002,-0.0084,-0.0091,-0.0096,-0.01,-0.0043,0,0,0,0,0,-0.0336,-0.0346,-0.0334,-0.0346,-0.0342,-0.0317,-0.0311,-0.0293,-0.0268,-0.0253,-0.0213,-0.0164,-0.0129,-0.0104,-0.0071,-0.0049,-0.0011,-0.0037,-0.0043,-0.0048,-0.0043,0.0008,0.0007,0.0016,0.0016,0.0016,0,0,-0.0346,-0.0345,-0.0349,-0.0351,-0.0338,-0.0348,-0.0309,-0.0308,-0.0312,-0.0244,-0.0231,-0.0189,-0.013,-0.0108,-0.0092,-0.0073,-0.0035,-0.0049,-0.0054,-0.0045,0.0007,0.0006,0.0005,0.0016,0.0016,0.0016,0,0,-0.0382,-0.0371,-0.0392,-0.0392,-0.0386,-0.0372,-0.0374,-0.0354,-0.0338,-0.0329,-0.0276,-0.0233,-0.0189,-0.0141,-0.0111,-0.0126,-0.0074,-0.0116,-0.0141,-0.0093,-0.0093,-0.0093,-0.0068,-0.0065,-0.0112,-0.0112,-0.0112,0,-0.0395,-0.0419,-0.0399,-0.042,-0.0423,-0.0386,-0.0408,-0.0393,-0.0368,-0.0351,-0.0334,-0.025,-0.02,-0.0154,-0.0158,-0.0137,-0.0113,-0.0123,-0.0101,-0.01,-0.0098,-0.0072,-0.0067,-0.0116,-0.0116,-0.0115,-0.0115,0,-0.0445,-0.0463,-0.0475,-0.0487,-0.0489,-0.0503,-0.0482,-0.0476,-0.0448,-0.0419,-0.0378,-0.0314,-0.0256,-0.0235,-0.02,-0.0161,-0.0151,-0.0123,-0.0087,-0.0104,-0.0076,-0.0069,-0.0122,-0.012,-0.0119,-0.0118,0,0,-0.048,-0.0506,-0.051,-0.053,-0.0525,-0.0536,-0.0538,-0.0525,-0.0521,-0.0475,-0.0456,-0.0382,-0.0331,-0.0294,-0.0238,-0.019,-0.0162,-0.0157,-0.0152,-0.0139,-0.0077,-0.0024,-0.0012,-0.0135,-0.0134,-0.0133,-0.0071,0,-0.0525,-0.0583,-0.0576,-0.0624,-0.065,-0.0619,-0.0627,-0.0605,-0.0574,-0.0547,-0.0455,-0.0415,-0.0359,-0.0329,-0.0274,-0.019,-0.0145,-0.0182,-0.0055,-0.0051,-0.0007,-0.0002,0.004,0.0103,-0.0064,-0.0063,-0.0062,0,-0.0576,-0.061,-0.0666,-0.0698,-0.0703,-0.0719,-0.0717,-0.0719,-0.066,-0.0628,-0.0559,-0.0492,-0.0404,-0.0358,-0.0221,-0.0252,-0.0171,-0.0105,-0.01,-0.0012,0.0015,0.01,0.0122,0.0281,-0.0052,-0.0053,-0.0054,0,-0.0623,-0.0671,-0.072,-0.0732,-0.0757,-0.0769,-0.077,-0.0737,-0.0736,-0.0669,-0.0651,-0.0541,-0.0485,-0.037,-0.0227,-0.0227,-0.0082,-0.0062,0.0061,0.0064,0.0148,0.0158,0.034,0.0038,0.0038,0.0038,0.0038,0,-0.0679,-0.0719,-0.0747,-0.0779,-0.083,-0.0818,-0.085,-0.0834,-0.0799,-0.0796,-0.069,-0.0662,-0.0484,-0.0378,-0.0251,-0.0075,-0.0096,0.0063,0.0094,0.0118,0.0124,0.0307,0.0363,0.004,0.004,0.0039,0.0039,0,-0.073,-0.0746,-0.0811,-0.0848,-0.086,-0.0895,-0.0912,-0.0931,-0.0886,-0.088,-0.0858,-0.0744,-0.0598,-0.0421,-0.0229,-0.0103,0.0163,0.0125,0.0132,0.0164,0.0433,0.0481,0.0683,0.0781,0.0269,0.027,0.0272,0,-0.0762,-0.0801,-0.0869,-0.0907,-0.0927,-0.0967,-0.0997,-0.0976,-0.0989,-0.0936,-0.0936,-0.0795,-0.0691,-0.0387,-0.0126,0.012,0.0242,0.0298,0.0325,0.0467,0.0544,0.0574,0.0643,0.0388,0.039,0.0392,0.0394,0,-0.0823,-0.0845,-0.0899,-0.0981,-0.1028,-0.1082,-0.1114,-0.1134,-0.1106,-0.1088,-0.1039,-0.0948,-0.0633,-0.0318,0.0027,0.0176,0.0428,0.0346,0.0505,0.067,0.0704,0.0806,0.0305,0.0411,0.041,0.0408,0.0407,0.0407,-0.0859,-0.0914,-0.0982,-0.1055,-0.1117,-0.118,-0.1214,-0.1235,-0.1249,-0.1195,-0.1113,-0.0933,-0.0463,0.0041,0.0222,0.0638,0.0592,0.0759,0.0806,0.0823,0.0933,0.0463,0.0601,0.06,0.06,0.0599,0.0599,0,-0.0906,-0.0965,-0.1046,-0.1139,-0.1217,-0.1227,-0.1283,-0.1292,-0.1306,-0.1203,-0.1116,-0.0614,-0.0154,0.0291,0.0865,0.1087,0.1137,0.1185,0.1246,0.1297,0.09,0.0923,0.1124,0.1124,0.1124,0.1123,0.1123,0.1123,-0.0932,-0.1022,-0.1068,-0.12,-0.126,-0.1333,-0.1356,-0.1354,-0.1277,-0.1052,-0.0777,-0.0567,0.0069,0.0945,0.1457,0.1498,0.1683,0.166,0.1758,0.149,0.1454,0.1419,0.1458,0.1768,0.1769,0.2151,0.2155,0.2158]}],[{"header":{"parameterUnit":"m.s-1","parameterCategory":2,"la1":30.2991,"la2":30.254,"lo1":-89.0895,"lo2":-89.0444,"dy":0.0017,"dx":0.0017,"nx":28,"ny":28,"refTime":"2024-08-18T21:00:00:Z","depth":"2","parameterNumber":2,"parameterNumberName":"U-component_of_CURRENTS"},"data":[0,0,0,0,0,0,0,0,0,0,0,0,0,0,0,0,0,0,0,0,0,0,0,0,0,0,0,0,0,0,0,0,0,0,0,0,0,0,0,0,0,0,0,0,0,0,0,0,0,0,0,0,0,0,0,0,0,0,-0.2138,-0.2138,0,-0.2203,-0.2204,-0.2205,-0.2192,-0.2191,-0.219,-0.2189,-0.2235,-0.2237,-0.2239,0,0,0,0,0,0,0,0,0,0,0,0,0,-0.2047,-0.2048,-0.2138,-0.2138,-0.2139,-0.2203,-0.2204,-0.2205,-0.2193,-0.2191,-0.219,-0.2189,-0.2234,-0.2236,-0.2239,0,0,0,0,0,0,0,0,0,0,0,0,0,-0.2096,-0.2049,-0.2137,-0.2142,-0.2143,-0.2203,-0.2204,-0.2205,-0.2193,-0.2191,-0.219,-0.2188,-0.2233,-0.2236,-0.2239,-0.2293,0,0,-0.225,-0.2251,0,0,0,0,0,0,0,0,-0.2093,-0.2099,-0.214,-0.2141,-0.2143,-0.2189,-0.2189,-0.2234,-0.2193,-0.2173,-0.2189,-0.2187,-0.2219,-0.2224,-0.2239,-0.2295,-0.2297,-0.225,-0.2252,-0.2253,-0.2254,0,0,0,0,0,0,0,-0.209,-0.2097,-0.2163,-0.2141,-0.2143,-0.2156,-0.2161,-0.2198,-0.2203,-0.2175,-0.2174,-0.2183,-0.2219,-0.2235,-0.224,-0.2298,-0.225,-0.2253,-0.2255,-0.2256,-0.2397,-0.2398,0,0,0,0,0,0,-0.2083,-0.2094,-0.2161,-0.2165,-0.2114,-0.2159,-0.2164,-0.2175,-0.2203,-0.2207,-0.2185,-0.2183,-0.2231,-0.2236,-0.2241,-0.2285,-0.2253,-0.2257,-0.2258,-0.2395,-0.2397,-0.2399,0,0,0,0,0,0,-0.2081,-0.2089,-0.2158,-0.2131,-0.2141,-0.2162,-0.2175,-0.2177,-0.2188,-0.2212,-0.2214,-0.2192,-0.2229,-0.2236,-0.2276,-0.2287,-0.2258,-0.2261,-0.2393,-0.2395,-0.2398,-0.2386,0,0,0,0,0,0,-0.2078,-0.2088,-0.2095,-0.2131,-0.2142,-0.2194,-0.2176,-0.218,-0.2197,-0.2195,-0.2219,-0.2222,-0.2229,-0.2271,-0.228,-0.2291,-0.2264,-0.2391,-0.2394,-0.2397,-0.2385,-0.2388,-0.2391,0,0,0,0,0,-0.2075,-0.2093,-0.2095,-0.2104,-0.2151,-0.2195,-0.2203,-0.2211,-0.2199,-0.2213,-0.2228,-0.2221,-0.2297,-0.2276,-0.2285,-0.2297,-0.2389,-0.2393,-0.2397,-0.2383,-0.2388,-0.2391,0,0,0,0,0,0,-0.2057,-0.2095,-0.2098,-0.2125,-0.2157,-0.2193,-0.2209,-0.2216,-0.2241,-0.2235,-0.2246,-0.2252,-0.2291,-0.2307,-0.2283,-0.2351,-0.2342,-0.2348,-0.2328,-0.2333,-0.2336,-0.2316,-0.2266,0,0,0,0,0,-0.2058,-0.2076,-0.2117,-0.2136,-0.2155,-0.2182,-0.22,-0.221,-0.2237,-0.2245,-0.2262,-0.2287,-0.2319,-0.2333,-0.2365,-0.2407,-0.2388,-0.2423,-0.2427,-0.2429,-0.2422,-0.2396,-0.2394,-0.2411,-0.2411,-0.2411,0,0,-0.2055,-0.2078,-0.2088,-0.2133,-0.2156,-0.2192,-0.2188,-0.222,-0.2243,-0.2249,-0.2281,-0.2302,-0.2335,-0.2375,-0.2394,-0.2385,-0.2419,-0.2434,-0.2435,-0.2427,-0.2399,-0.2397,-0.2395,-0.2414,-0.2414,-0.2413,0,0,-0.2061,-0.2081,-0.2101,-0.2133,-0.2174,-0.2198,-0.2207,-0.2248,-0.2258,-0.2301,-0.2307,-0.2328,-0.2387,-0.2399,-0.2416,-0.2464,-0.2439,-0.2485,-0.248,-0.2455,-0.2452,-0.2449,-0.2426,-0.2421,-0.2483,-0.2483,-0.2483,0,-0.2054,-0.2085,-0.2114,-0.2146,-0.217,-0.22,-0.2231,-0.2259,-0.2304,-0.2314,-0.231,-0.2373,-0.2393,-0.243,-0.2443,-0.2466,-0.245,-0.2455,-0.2454,-0.2451,-0.2448,-0.2425,-0.2419,-0.2483,-0.2483,-0.2483,-0.2483,0,-0.2078,-0.2106,-0.2123,-0.2169,-0.2203,-0.2235,-0.2279,-0.2305,-0.2319,-0.2339,-0.2373,-0.2397,-0.2426,-0.2443,-0.2457,-0.2463,-0.2458,-0.2458,-0.243,-0.2444,-0.2421,-0.2415,-0.2483,-0.2483,-0.2483,-0.2483,0,0,-0.205,-0.2124,-0.2127,-0.2151,-0.2215,-0.2245,-0.2288,-0.2333,-0.2351,-0.238,-0.2394,-0.2439,-0.2436,-0.2456,-0.2471,-0.2451,-0.2418,-0.2446,-0.2445,-0.2399,-0.2359,-0.2305,-0.2293,-0.2411,-0.241,-0.2409,-0.235,0,-0.2055,-0.2109,-0.2147,-0.2197,-0.223,-0.2273,-0.2313,-0.2354,-0.2382,-0.2406,-0.2416,-0.2443,-0.2448,-0.2456,-0.2438,-0.2431,-0.2403,-0.2434,-0.2374,-0.2372,-0.23,-0.2285,-0.213,-0.206,-0.2345,-0.2344,-0.2343,0,-0.206,-0.2096,-0.2144,-0.2209,-0.2227,-0.2261,-0.2315,-0.2353,-0.2398,-0.2417,-0.2432,-0.2446,-0.2444,-0.2436,-0.2398,-0.2417,-0.2385,-0.2366,-0.2363,-0.2308,-0.2306,-0.2095,-0.2039,-0.2334,-0.2334,-0.2335,-0.2336,0,-0.2018,-0.209,-0.2122,-0.2148,-0.223,-0.225,-0.2289,-0.2347,-0.2375,-0.2414,-0.2427,-0.2435,-0.2431,-0.2395,-0.2369,-0.2377,-0.231,-0.2315,-0.2233,-0.2229,-0.2083,-0.2068,-0.2263,-0.2263,-0.2264,-0.2264,-0.2264,0,-0.2004,-0.2028,-0.2105,-0.2123,-0.2159,-0.2224,-0.2259,-0.2303,-0.2355,-0.2373,-0.2419,-0.2423,-0.2416,-0.239,-0.2357,-0.2274,-0.2296,-0.2217,-0.2202,-0.2079,-0.2064,-0.2295,-0.23,-0.2262,-0.2262,-0.2262,-0.2263,0,-0.1948,-0.2002,-0.2041,-0.2119,-0.214,-0.2161,-0.2235,-0.2254,-0.2321,-0.234,-0.2349,-0.2399,-0.2362,-0.2349,-0.2292,-0.225,-0.2186,-0.2151,-0.2012,-0.198,-0.2126,-0.2131,-0.2041,-0.2038,-0.2036,-0.2034,-0.2033,0,-0.1925,-0.194,-0.2015,-0.2027,-0.2058,-0.2103,-0.2125,-0.2215,-0.2233,-0.2313,-0.2303,-0.2313,-0.2286,-0.2205,-0.213,-0.2047,-0.2117,-0.1862,-0.1846,-0.2104,-0.2099,-0.2108,-0.2116,-0.1652,-0.1647,-0.1643,-0.164,0,-0.1866,-0.1892,-0.1918,-0.1949,-0.1973,-0.2006,-0.2046,-0.2067,-0.2154,-0.218,-0.2195,-0.2188,-0.213,-0.198,-0.1898,-0.1832,-0.1866,-0.1784,-0.2063,-0.1744,-0.1735,-0.1732,-0.1752,-0.1607,-0.1611,-0.1613,-0.1615,-0.1616,-0.1802,-0.1805,-0.1835,-0.185,-0.1878,-0.1889,-0.1871,-0.1921,-0.1943,-0.1948,-0.2023,-0.1955,-0.1921,-0.1716,-0.1606,-0.1524,-0.1658,-0.1576,-0.1588,-0.1604,-0.1581,-0.157,-0.1407,-0.1409,-0.141,-0.1412,-0.1413,0,-0.1713,-0.172,-0.173,-0.1744,-0.172,-0.1775,-0.1789,-0.175,-0.1724,-0.1753,-0.1741,-0.1566,-0.1456,-0.1425,-0.1248,-0.1203,-0.1189,-0.1144,-0.1132,-0.1166,-0.1196,-0.1153,-0.0864,-0.0863,-0.0861,-0.0859,0,0,-0.1665,-0.1634,-0.1639,-0.1572,-0.1574,-0.1503,-0.1482,-0.1449,-0.1441,-0.1387,-0.1347,-0.142,-0.142,-0.1162,-0.1082,-0.0949,-0.1049,-0.0896,-0.134,-0.1364,-0.1392,-0.1451,-0.1424,0,0,0,0,0]},{"header":{"parameterUnit":"m.s-1","parameterCategory":2,"la1":30.2991,"la2":30.254,"lo1":-89.0895,"lo2":-89.0444,"dy":0.0017,"dx":0.0017,"nx":28,"ny":28,"refTime":"2024-08-18T21:00:00:Z","depth":"2","parameterNumber":3,"parameterNumberName":"V-component_of_CURRENTS"},"data":[0,0,0,0,0,0,0,0,0,0,0,0,0,0,0,0,0,0,0,0,0,0,0,0,0,0,0,0,0,0,0,0,0,0,0,0,0,0,0,0,0,0,0,0,0,0,0,0,0,0,0,0,0,0,0,0,0,0,-0.0213,-0.0213,0,-0.0174,-0.0174,-0.0173,-0.0116,-0.0115,-0.0115,-0.0114,-0.0009,-0.0007,-0.0005,0,0,0,0,0,0,0,0,0,0,0,0,0,-0.0205,-0.0205,-0.0214,-0.0213,-0.0213,-0.0174,-0.0174,-0.0173,-0.0116,-0.0115,-0.0114,-0.0113,-0.0009,-0.0007,-0.0004,0,0,0,0,0,0,0,0,0,0,0,0,0,-0.019,-0.0205,-0.0214,-0.0181,-0.0178,-0.0174,-0.0174,-0.0173,-0.0117,-0.0115,-0.0114,-0.0113,-0.001,-0.0007,-0.0004,-0.001,0,0,0.0005,0.0007,0,0,0,0,0,0,0,0,-0.0191,-0.019,-0.0186,-0.0184,-0.018,-0.015,-0.0132,-0.0116,-0.0117,-0.0138,-0.0114,-0.0112,-0.0052,-0.0046,-0.0039,-0.0005,-0.0,0.0006,0.0007,0.0009,0.001,0,0,0,0,0,0,0,-0.0192,-0.0191,-0.0196,-0.0186,-0.0182,-0.0157,-0.0154,-0.0129,-0.01,-0.0136,-0.0132,-0.0131,-0.0049,-0.0042,-0.0036,0.0001,0.0005,0.0008,0.001,0.0011,0.0054,0.0053,0,0,0,0,0,0,-0.0204,-0.0193,-0.0197,-0.0195,-0.0185,-0.0159,-0.0155,-0.016,-0.0101,-0.0092,-0.0132,-0.0129,-0.0048,-0.004,-0.0032,-0.0027,0.0009,0.0012,0.0013,0.0054,0.0053,0.0053,0,0,0,0,0,0,-0.0204,-0.0205,-0.0199,-0.0194,-0.0191,-0.016,-0.0166,-0.016,-0.0147,-0.01,-0.0089,-0.0126,-0.0047,-0.0036,-0.0016,-0.0022,0.0013,0.0016,0.0055,0.0054,0.0053,-0.0021,0,0,0,0,0,0,-0.0204,-0.0205,-0.0211,-0.0195,-0.0192,-0.0207,-0.0167,-0.016,-0.0149,-0.0144,-0.009,-0.008,-0.0045,-0.0021,-0.0013,-0.0017,0.0018,0.0056,0.0055,0.0053,-0.0017,-0.0024,-0.003,0,0,0,0,0,-0.0204,-0.0222,-0.0211,-0.0212,-0.0202,-0.0208,-0.0205,-0.0176,-0.015,-0.0157,-0.0119,-0.0081,-0.0023,-0.0019,-0.0009,-0.0013,0.0057,0.0055,0.0053,-0.0015,-0.0023,-0.003,0,0,0,0,0,0,-0.0222,-0.0217,-0.0205,-0.0221,-0.0218,-0.0199,-0.02,-0.0181,-0.0157,-0.0144,-0.0093,-0.0081,-0.0066,-0.0033,-0.003,-0.0006,0.0024,0.0025,-0.0031,-0.0038,-0.0044,-0.0046,0.0021,0,0,0,0,0,-0.023,-0.0241,-0.0233,-0.0247,-0.0244,-0.0222,-0.0218,-0.0202,-0.0181,-0.0168,-0.0133,-0.0094,-0.0068,-0.0048,-0.0023,-0.001,0.0036,-0.0005,-0.0012,-0.0017,-0.0012,0.0049,0.0049,0.0047,0.0047,0.0047,0,0,-0.0241,-0.0241,-0.0246,-0.0251,-0.0241,-0.0254,-0.0216,-0.0217,-0.0224,-0.0161,-0.0154,-0.0119,-0.0072,-0.0061,-0.0049,-0.003,0.0003,-0.0019,-0.0024,-0.0016,0.0047,0.0047,0.0048,0.0046,0.0047,0.0047,0,0,-0.0277,-0.0268,-0.0289,-0.0292,-0.0288,-0.0277,-0.028,-0.0264,-0.0251,-0.0247,-0.0201,-0.0167,-0.0135,-0.0097,-0.0074,-0.0099,-0.0038,-0.0095,-0.0119,-0.0061,-0.006,-0.0058,-0.0015,-0.0009,-0.0091,-0.0091,-0.0091,0,-0.0289,-0.0315,-0.0297,-0.032,-0.0325,-0.0291,-0.0315,-0.0304,-0.0285,-0.0271,-0.0255,-0.0189,-0.015,-0.0117,-0.0127,-0.0111,-0.0074,-0.0096,-0.0068,-0.0066,-0.0063,-0.0018,-0.0011,-0.0095,-0.0094,-0.0094,-0.0094,0,-0.034,-0.036,-0.0373,-0.0388,-0.0393,-0.0409,-0.0394,-0.0391,-0.0366,-0.0342,-0.031,-0.0257,-0.021,-0.0197,-0.0169,-0.0133,-0.0114,-0.0089,-0.0049,-0.0067,-0.002,-0.001,-0.01,-0.0099,-0.0098,-0.0097,0,0,-0.0374,-0.0404,-0.0408,-0.0428,-0.0429,-0.0442,-0.0451,-0.0444,-0.0441,-0.0404,-0.0385,-0.0334,-0.0285,-0.0256,-0.0209,-0.0156,-0.0111,-0.012,-0.0115,-0.0077,0.0008,0.0041,0.0054,-0.0081,-0.008,-0.0078,0.0027,0,-0.0419,-0.0479,-0.0475,-0.0525,-0.0552,-0.0527,-0.0541,-0.0525,-0.0497,-0.0471,-0.0392,-0.0357,-0.0314,-0.0287,-0.023,-0.014,-0.0088,-0.0142,0.0021,0.0025,0.0058,0.0066,0.0047,0.0142,0.0037,0.0038,0.004,0,-0.047,-0.0504,-0.0563,-0.0597,-0.0603,-0.0622,-0.0625,-0.0632,-0.0579,-0.0549,-0.0486,-0.0423,-0.0338,-0.03,-0.0148,-0.0187,-0.0098,-0.0025,-0.0019,0.0049,0.0076,0.0147,0.0163,0.0056,0.0055,0.0053,0.0052,0,-0.0512,-0.0564,-0.0613,-0.0627,-0.0657,-0.067,-0.0675,-0.0649,-0.0651,-0.0585,-0.0563,-0.0457,-0.0395,-0.0273,-0.0127,-0.0134,0.0043,0.0057,0.0171,0.0174,0.021,0.0214,0.017,0.017,0.017,0.0169,0.0169,0,-0.0566,-0.0606,-0.0637,-0.0669,-0.0721,-0.0715,-0.0747,-0.0735,-0.0702,-0.0695,-0.0598,-0.0557,-0.0384,-0.0265,-0.0136,0.0047,0.0042,0.0175,0.0211,0.0181,0.0181,0.0151,0.0147,0.0173,0.0172,0.0172,0.0171,0,-0.0611,-0.063,-0.0695,-0.0735,-0.0748,-0.0783,-0.0803,-0.082,-0.0778,-0.0763,-0.0739,-0.0616,-0.0455,-0.0284,-0.0073,0.004,0.0208,0.0274,0.0219,0.0247,0.0299,0.029,0.0413,0.0415,0.0417,0.0418,0.042,0,-0.064,-0.0679,-0.0749,-0.0785,-0.0806,-0.0847,-0.0877,-0.0861,-0.0868,-0.0799,-0.0787,-0.0634,-0.0515,-0.0199,0.0029,0.027,0.0265,0.0388,0.0381,0.0305,0.0327,0.0315,0.0304,0.0393,0.0394,0.0395,0.0395,0,-0.0696,-0.0719,-0.0771,-0.0851,-0.0896,-0.0948,-0.0976,-0.0989,-0.0959,-0.0922,-0.0838,-0.0733,-0.0433,-0.0159,0.0151,0.0286,0.0347,0.0413,0.0369,0.033,0.0294,0.0313,0.0302,0.0402,0.0402,0.0401,0.0401,0.04,-0.0728,-0.078,-0.0846,-0.0916,-0.0975,-0.1028,-0.1056,-0.1059,-0.1052,-0.0968,-0.0872,-0.0677,-0.0424,0.0034,0.0246,0.0446,0.0439,0.0497,0.0491,0.0485,0.046,0.0429,0.0557,0.0557,0.0558,0.0558,0.0558,0,-0.0771,-0.0826,-0.0902,-0.0989,-0.1058,-0.1072,-0.1111,-0.1105,-0.1081,-0.096,-0.0841,-0.0542,-0.0226,0.0037,0.0367,0.0554,0.0528,0.0578,0.0512,0.0504,0.0497,0.0469,0.0571,0.0572,0.0572,0.0573,0,0,-0.0794,-0.0877,-0.0919,-0.1037,-0.1093,-0.1155,-0.1169,-0.1135,-0.1048,-0.091,-0.0745,-0.0525,-0.0205,0.0032,0.0262,0.0432,0.0414,0.0441,0.0413,0.03,0.0291,0.0436,0.0383,0,0,0,0,0]}],[{"header":{"parameterUnit":"m.s-1","parameterCategory":2,"la1":30.2991,"la2":30.254,"lo1":-89.0895,"lo2":-89.0444,"dy":0.0017,"dx":0.0017,"nx":28,"ny":28,"refTime":"2024-08-18T21:00:00:Z","depth":"4","parameterNumber":2,"parameterNumberName":"U-component_of_CURRENTS"},"data":[0,0,0,0,0,0,0,0,0,0,0,0,0,0,0,0,0,0,0,0,0,0,0,0,0,0,0,0,0,0,0,0,0,0,0,0,0,0,0,0,0,0,0,0,0,0,0,0,0,0,0,0,0,0,0,0,0,0,-0.1575,-0.1576,0,-0.1661,-0.1662,-0.1663,-0.1702,-0.1702,-0.1702,-0.1702,-0.1792,-0.1794,-0.1797,0,0,0,0,0,0,0,0,0,0,0,0,0,-0.1469,-0.1471,-0.1575,-0.1576,-0.1577,-0.1661,-0.1662,-0.1663,-0.1702,-0.1702,-0.1702,-0.1702,-0.1791,-0.1794,-0.1797,0,0,0,0,0,0,0,0,0,0,0,0,0,-0.153,-0.1471,-0.1575,-0.1607,-0.1611,-0.1661,-0.1662,-0.1664,-0.1702,-0.1702,-0.1702,-0.1702,-0.179,-0.1794,-0.1797,-0.1821,0,0,-0.1808,-0.181,0,0,0,0,0,0,0,0,-0.1527,-0.1534,-0.1601,-0.1605,-0.161,-0.1671,-0.1658,-0.1717,-0.1702,-0.1667,-0.1702,-0.1702,-0.1752,-0.1759,-0.1775,-0.1825,-0.1829,-0.1809,-0.1811,-0.1812,-0.1813,0,0,0,0,0,0,0,-0.1523,-0.1531,-0.1609,-0.1603,-0.1608,-0.1626,-0.1634,-0.1669,-0.1709,-0.167,-0.1673,-0.1684,-0.1754,-0.1771,-0.1777,-0.183,-0.1809,-0.1812,-0.1814,-0.1815,-0.1948,-0.1949,0,0,0,0,0,0,-0.1512,-0.1527,-0.1606,-0.1611,-0.1568,-0.1628,-0.1637,-0.1651,-0.1708,-0.1717,-0.1684,-0.1685,-0.1765,-0.1773,-0.178,-0.1854,-0.1812,-0.1816,-0.1818,-0.1947,-0.1948,-0.195,0,0,0,0,0,0,-0.151,-0.1518,-0.1603,-0.1571,-0.1583,-0.1629,-0.1645,-0.1653,-0.1692,-0.1719,-0.1727,-0.1717,-0.1765,-0.1775,-0.1836,-0.1856,-0.1817,-0.1821,-0.1945,-0.1947,-0.1949,-0.1974,0,0,0,0,0,0,-0.1506,-0.1517,-0.1538,-0.1571,-0.1585,-0.1647,-0.1645,-0.1655,-0.1698,-0.1701,-0.175,-0.1757,-0.1766,-0.1831,-0.184,-0.186,-0.1824,-0.1944,-0.1946,-0.1949,-0.1972,-0.1977,-0.1981,0,0,0,0,0,-0.1502,-0.1526,-0.1539,-0.1549,-0.1607,-0.1648,-0.1657,-0.1689,-0.1699,-0.1723,-0.176,-0.1757,-0.1852,-0.1836,-0.1846,-0.1867,-0.1942,-0.1945,-0.1948,-0.1969,-0.1976,-0.1981,0,0,0,0,0,0,-0.1492,-0.1533,-0.1548,-0.1584,-0.162,-0.1655,-0.1685,-0.1704,-0.1753,-0.1764,-0.1784,-0.1794,-0.1851,-0.1862,-0.1842,-0.1913,-0.1893,-0.1899,-0.1906,-0.1912,-0.1917,-0.1896,-0.1827,0,0,0,0,0,-0.1499,-0.1527,-0.1567,-0.1597,-0.1618,-0.1657,-0.1683,-0.1705,-0.1745,-0.1767,-0.18,-0.1836,-0.1868,-0.1893,-0.1923,-0.1972,-0.1955,-0.199,-0.1994,-0.1998,-0.199,-0.1979,-0.1982,-0.196,-0.196,-0.196,0,0,-0.1505,-0.153,-0.1548,-0.1598,-0.163,-0.1665,-0.1673,-0.172,-0.1752,-0.1769,-0.1833,-0.1859,-0.1886,-0.1934,-0.196,-0.1949,-0.1999,-0.2002,-0.2005,-0.1994,-0.1983,-0.1984,-0.1986,-0.1962,-0.1962,-0.1961,0,0,-0.1517,-0.1554,-0.158,-0.1613,-0.1664,-0.1689,-0.1707,-0.1759,-0.1787,-0.1848,-0.1863,-0.1899,-0.1964,-0.1975,-0.1989,-0.204,-0.2025,-0.206,-0.207,-0.2061,-0.2062,-0.2063,-0.2052,-0.2052,-0.2062,-0.2063,-0.2063,0,-0.1524,-0.1559,-0.1595,-0.1627,-0.1656,-0.1701,-0.1734,-0.1772,-0.1838,-0.186,-0.1873,-0.1951,-0.1974,-0.2012,-0.203,-0.2048,-0.2044,-0.2045,-0.2065,-0.2065,-0.2065,-0.2054,-0.2053,-0.2064,-0.2064,-0.2064,-0.2064,0,-0.1546,-0.1586,-0.1607,-0.1659,-0.1697,-0.1736,-0.1785,-0.1831,-0.187,-0.1899,-0.1957,-0.1989,-0.2027,-0.2044,-0.2056,-0.2077,-0.2075,-0.207,-0.2043,-0.2068,-0.2056,-0.2054,-0.2066,-0.2066,-0.2065,-0.2065,0,0,-0.1524,-0.1606,-0.1616,-0.1645,-0.1718,-0.1747,-0.1805,-0.186,-0.1897,-0.1952,-0.1988,-0.2038,-0.2053,-0.2069,-0.2087,-0.2083,-0.2084,-0.2084,-0.2082,-0.2061,-0.2069,-0.1941,-0.1927,-0.2088,-0.2088,-0.2088,-0.2063,0,-0.1532,-0.1589,-0.1631,-0.1691,-0.1725,-0.1782,-0.1831,-0.1886,-0.1936,-0.1986,-0.2011,-0.2059,-0.2065,-0.209,-0.2087,-0.2092,-0.2081,-0.2091,-0.2059,-0.2057,-0.1929,-0.192,-0.2087,-0.2061,-0.2061,-0.206,-0.206,0,-0.1532,-0.1573,-0.163,-0.1706,-0.1727,-0.1773,-0.185,-0.1898,-0.197,-0.2009,-0.2049,-0.2078,-0.21,-0.2095,-0.209,-0.2103,-0.2085,-0.2075,-0.2074,-0.1938,-0.1924,-0.2031,-0.2057,-0.2057,-0.2057,-0.2057,-0.2058,0,-0.1483,-0.1568,-0.1613,-0.1641,-0.1736,-0.1775,-0.1827,-0.1906,-0.1947,-0.2022,-0.2056,-0.209,-0.2112,-0.2096,-0.2087,-0.2095,-0.2064,-0.2068,-0.193,-0.1922,-0.2036,-0.2035,-0.2039,-0.2039,-0.2039,-0.2039,-0.2039,0,-0.1456,-0.1496,-0.1601,-0.1625,-0.1683,-0.1756,-0.182,-0.1878,-0.1956,-0.1991,-0.2062,-0.2082,-0.2114,-0.2108,-0.2087,-0.1994,-0.206,-0.1914,-0.1896,-0.205,-0.2052,-0.2035,-0.2035,-0.2038,-0.2039,-0.2039,-0.2039,0,-0.139,-0.1462,-0.152,-0.1626,-0.1662,-0.1702,-0.1811,-0.1844,-0.1937,-0.1982,-0.2005,-0.208,-0.2065,-0.2073,-0.2048,-0.1977,-0.1915,-0.1866,-0.203,-0.2025,-0.1782,-0.1784,-0.1699,-0.1694,-0.1689,-0.1686,-0.1683,0,-0.1359,-0.1384,-0.1504,-0.1536,-0.1589,-0.1665,-0.1707,-0.1818,-0.1848,-0.1958,-0.1955,-0.1995,-0.2021,-0.1881,-0.1907,-0.1834,-0.1812,-0.177,-0.1764,-0.175,-0.1743,-0.1752,-0.1759,-0.1676,-0.1675,-0.1674,-0.1673,0,-0.129,-0.1347,-0.1391,-0.1461,-0.1518,-0.1574,-0.1643,-0.1659,-0.1766,-0.1864,-0.1853,-0.1837,-0.1816,-0.1788,-0.174,-0.1695,-0.179,-0.1725,-0.1734,-0.1728,-0.1723,-0.1721,-0.1733,-0.1658,-0.166,-0.1662,-0.1663,0,-0.1235,-0.1251,-0.1316,-0.1361,-0.1432,-0.1458,-0.1515,-0.1542,-0.1589,-0.1707,-0.1696,-0.174,-0.1803,-0.1714,-0.1674,-0.1611,-0.1582,-0.1524,-0.1542,-0.1559,-0.152,-0.1493,-0.1323,0,0,0,0,0,-0.1171,-0.1173,-0.1208,-0.1255,-0.1319,-0.1359,-0.1453,-0.1511,-0.1616,-0.156,-0.1625,-0.1598,-0.1546,-0.1574,-0.1473,-0.1598,-0.1586,-0.1474,-0.1529,-0.1577,-0.1594,-0.156,0,0,0,0,0,0,-0.1127,-0.1157,-0.1168,-0.1151,-0.1159,-0.1218,-0.1275,-0.1351,-0.1331,-0.1439,-0.1418,-0.1488,-0.146,-0.1569,-0.1436,-0.1438,-0.1436,-0.1501,-0.1497,-0.1568,-0.1583,-0.1596,-0.1567,0,0,0,0,0]},{"header":{"parameterUnit":"m.s-1","parameterCategory":2,"la1":30.2991,"la2":30.254,"lo1":-89.0895,"lo2":-89.0444,"dy":0.0017,"dx":0.0017,"nx":28,"ny":28,"refTime":"2024-08-18T21:00:00:Z","depth":"4","parameterNumber":3,"parameterNumberName":"V-component_of_CURRENTS"},"data":[0,0,0,0,0,0,0,0,0,0,0,0,0,0,0,0,0,0,0,0,0,0,0,0,0,0,0,0,0,0,0,0,0,0,0,0,0,0,0,0,0,0,0,0,0,0,0,0,0,0,0,0,0,0,0,0,0,0,-0.0151,-0.0151,0,-0.013,-0.0129,-0.0129,-0.0088,-0.0088,-0.0087,-0.0087,-0.0012,-0.001,-0.0009,0,0,0,0,0,0,0,0,0,0,0,0,0,-0.0134,-0.0134,-0.0151,-0.0151,-0.0151,-0.013,-0.0129,-0.0129,-0.0089,-0.0088,-0.0087,-0.0086,-0.0012,-0.0011,-0.0009,0,0,0,0,0,0,0,0,0,0,0,0,0,-0.0129,-0.0135,-0.0152,-0.013,-0.0127,-0.013,-0.0129,-0.0129,-0.0089,-0.0088,-0.0087,-0.0086,-0.0013,-0.0011,-0.0009,-0.0016,0,0,-0.0002,-0.0002,0,0,0,0,0,0,0,0,-0.0129,-0.0129,-0.0133,-0.0131,-0.0129,-0.0112,-0.0096,-0.0089,-0.0089,-0.0102,-0.0087,-0.0085,-0.0042,-0.0038,-0.0034,-0.0012,-0.0009,-0.0002,-0.0001,-0.0,0.0,0,0,0,0,0,0,0,-0.0129,-0.013,-0.0141,-0.0133,-0.013,-0.0112,-0.0111,-0.0094,-0.0076,-0.0101,-0.0098,-0.0098,-0.004,-0.0037,-0.0032,-0.0008,-0.0002,-0.0,0.0001,0.0002,0.0009,0.0008,0,0,0,0,0,0,-0.0137,-0.013,-0.0142,-0.0141,-0.0128,-0.0114,-0.0112,-0.0117,-0.0077,-0.0071,-0.0099,-0.0096,-0.0041,-0.0035,-0.0029,-0.0038,-0.0,0.0002,0.0003,0.001,0.0009,0.0008,0,0,0,0,0,0,-0.0137,-0.0139,-0.0143,-0.0136,-0.0135,-0.0116,-0.0122,-0.0117,-0.011,-0.0077,-0.0069,-0.0096,-0.004,-0.0032,-0.0022,-0.0034,0.0003,0.0005,0.0012,0.001,0.0009,-0.0053,0,0,0,0,0,0,-0.0137,-0.0139,-0.0145,-0.0137,-0.0136,-0.0153,-0.0123,-0.0118,-0.0112,-0.0108,-0.0071,-0.0063,-0.0038,-0.0025,-0.002,-0.0031,0.0006,0.0013,0.0011,0.0009,-0.0049,-0.0056,-0.0062,0,0,0,0,0,-0.0136,-0.0153,-0.0146,-0.0147,-0.0145,-0.0155,-0.0153,-0.0134,-0.0113,-0.0121,-0.0094,-0.0064,-0.0033,-0.0025,-0.0018,-0.0028,0.0014,0.0012,0.0009,-0.0047,-0.0055,-0.0062,0,0,0,0,0,0,-0.015,-0.015,-0.0142,-0.0158,-0.0159,-0.0148,-0.0152,-0.0138,-0.0123,-0.0114,-0.0077,-0.0068,-0.0066,-0.0042,-0.0033,-0.0034,-0.0005,-0.0006,-0.005,-0.0058,-0.0064,-0.0062,0.0008,0,0,0,0,0,-0.0157,-0.0169,-0.0165,-0.018,-0.018,-0.0165,-0.0164,-0.0154,-0.0142,-0.0133,-0.011,-0.0085,-0.0072,-0.006,-0.0047,-0.0045,0.0005,-0.0048,-0.0055,-0.006,-0.0056,0.0009,0.001,0.0,0.0,0.0001,0,0,-0.0166,-0.0169,-0.0174,-0.0183,-0.0178,-0.0193,-0.0162,-0.0168,-0.0179,-0.0128,-0.0132,-0.0108,-0.0079,-0.008,-0.0076,-0.0058,-0.0034,-0.0063,-0.0068,-0.006,0.0007,0.0008,0.0009,-0.0001,-0.0001,-0.0001,0,0,-0.0196,-0.0193,-0.0212,-0.0218,-0.0219,-0.0214,-0.0218,-0.021,-0.0204,-0.0209,-0.0176,-0.0156,-0.0141,-0.0119,-0.0106,-0.0138,-0.0073,-0.0139,-0.0162,-0.0101,-0.0099,-0.0096,-0.004,-0.0032,-0.0137,-0.0137,-0.0137,0,-0.0207,-0.0232,-0.022,-0.0241,-0.025,-0.0227,-0.0251,-0.0247,-0.0239,-0.0233,-0.0219,-0.0182,-0.0158,-0.0144,-0.0159,-0.015,-0.0104,-0.0136,-0.0107,-0.0103,-0.0099,-0.0042,-0.0032,-0.014,-0.014,-0.014,-0.0139,0,-0.025,-0.0271,-0.0284,-0.0302,-0.0311,-0.0329,-0.0324,-0.0328,-0.0314,-0.0299,-0.0284,-0.0248,-0.022,-0.0216,-0.0198,-0.0171,-0.0143,-0.0124,-0.0083,-0.0102,-0.0041,-0.0029,-0.0145,-0.0144,-0.0143,-0.0142,0,0,-0.0275,-0.0308,-0.0313,-0.0333,-0.0344,-0.0358,-0.0377,-0.0382,-0.0385,-0.0362,-0.0351,-0.0329,-0.029,-0.0272,-0.024,-0.0189,-0.0132,-0.0151,-0.0146,-0.0088,0.0008,-0.0004,0.0008,-0.0102,-0.01,-0.0099,0.0039,0,-0.0313,-0.0368,-0.0371,-0.0421,-0.0447,-0.0436,-0.0457,-0.0454,-0.0439,-0.0422,-0.0365,-0.0343,-0.0317,-0.0297,-0.0246,-0.016,-0.0104,-0.0171,0.0012,0.0018,0.0015,0.0019,-0.0094,0.0048,0.005,0.0052,0.0054,0,-0.0353,-0.0386,-0.0443,-0.0482,-0.049,-0.0515,-0.0531,-0.0546,-0.0513,-0.0492,-0.0446,-0.0395,-0.0326,-0.0297,-0.0147,-0.0189,-0.0099,-0.0026,-0.0019,0.0002,0.0026,0.0072,0.0075,0.0073,0.0072,0.007,0.0069,0,-0.038,-0.0435,-0.0483,-0.0498,-0.0537,-0.0558,-0.0572,-0.0564,-0.0571,-0.0523,-0.0502,-0.0415,-0.0359,-0.0239,-0.0106,-0.0116,0.0072,0.0082,0.0159,0.016,0.0159,0.0155,0.0199,0.0199,0.0198,0.0198,0.0197,0,-0.0418,-0.0458,-0.0502,-0.0531,-0.0586,-0.0593,-0.0632,-0.0631,-0.0612,-0.0606,-0.0534,-0.049,-0.0338,-0.022,-0.01,0.0061,0.0082,0.0162,0.0197,0.0127,0.0118,0.0167,0.0161,0.0203,0.0202,0.0201,0.02,0,-0.0441,-0.047,-0.0533,-0.0585,-0.0604,-0.0642,-0.0679,-0.0698,-0.0673,-0.0656,-0.0635,-0.0525,-0.0369,-0.0219,-0.0011,0.0068,0.0224,0.0277,0.019,0.0217,0.027,0.026,0.0382,0.0382,0.0383,0.0384,0.0384,0,-0.0457,-0.0493,-0.0574,-0.0613,-0.0641,-0.0693,-0.0727,-0.0729,-0.0734,-0.0671,-0.0652,-0.051,-0.0421,-0.0131,0.0017,0.0247,0.0271,0.0346,0.0305,0.0269,0.0291,0.0279,0.0268,0.0385,0.0385,0.0385,0.0386,0,-0.0487,-0.0519,-0.0569,-0.0653,-0.0705,-0.0759,-0.0794,-0.0796,-0.0779,-0.0759,-0.0638,-0.0494,-0.032,-0.0118,0.0056,0.0217,0.0291,0.0353,0.0353,0.0315,0.0274,0.0293,0.0281,0.0388,0.0387,0.0387,0.0387,0,-0.0505,-0.0547,-0.0615,-0.0683,-0.0754,-0.0796,-0.0815,-0.0794,-0.0788,-0.0706,-0.0661,-0.0475,-0.0365,-0.0131,0.0031,0.0182,0.0215,0.0252,0.0257,0.0257,0.0164,0.0091,0.0186,0,0,0,0,0,-0.0518,-0.0566,-0.0636,-0.0713,-0.0782,-0.0819,-0.0848,-0.0849,-0.0823,-0.0739,-0.0696,-0.0528,-0.0274,-0.0159,-0.0006,0.0026,0.0223,0.0206,0.0263,0.04,0.0398,0.0307,0,0,0,0,0,0,-0.0528,-0.0598,-0.0637,-0.0721,-0.0772,-0.0842,-0.0859,-0.0841,-0.078,-0.0728,-0.0583,-0.0508,-0.0256,-0.0359,-0.0008,0.0036,0.0089,0.0326,0.0329,0.0402,0.0399,0.0397,0.0303,0,0,0,0,0]}]]